Weather History for KGHW - October, 2012

Change the Weather History Date:

Wednesday, October 31, 2012

  Actual Average Record
Temperature  
Mean Temperature 42 °F -  
Max Temperature 53 °F 50 °F 74 °F (1950)
Min Temperature 30 °F 32 °F 3 °F (1951)
Degree Days  
Heating Degree Days 24    
Moisture  
Dew Point 30 °F    
Average Humidity 67    
Maximum Humidity 93    
Minimum Humidity 33    
Precipitation  
Precipitation 0.00 in - - ()
Sea Level Pressure  
Sea Level Pressure 30.01 in    
Wind  
Wind Speed 3 mph (West)    
Max Wind Speed 9 mph    
Max Gust Speed -    
Visibility 10 miles    
Events      
Averages and records for this station are not official NWS values.
T = Trace of Precipitation, MM = Missing Value Source: NWS Daily Summary

Daily Weather History Graph

Daily Weather History Graph

Search for Another Location

Airport or City:

Trip Planner

Search our weather history database for the weather conditions in past years. The results will help you decide how hot, cold, wet, or windy it might be!

Date:

Astronomy

Oct. 31, 2012 Rise Set
Actual Time 8:00 AM CDT 6:08 PM CDT
Civil Twilight 7:29 AM CDT 6:39 PM CDT
Nautical Twilight 6:54 AM CDT 7:14 PM CDT
Astronomical Twilight 6:19 AM CDT 7:49 PM CDT
Moon 7:14 PM CDT (10/31) 9:47 AM CDT (10/31)
Length of Visible Light 11h 10m
Length of Day
10h 08m
Full, 97% of the Moon is Illuminated
Oct 31
Full
Nov 6
Last Quarter
Nov 13
New
Nov 20
First Quarter
Nov 28
Full

Hourly Weather History & Observations

Time (CDT) Temp. Windchill Dew Point Humidity Pressure Visibility Wind Dir Wind Speed Gust Speed Precip Events Conditions
12:33 AM 37.4 °F 34.9 °F 32.0 °F 81% 30.08 in 10.0 mi NNE 3.5 mph - N/A   Overcast
12:54 AM 37.4 °F 32.8 °F 30.2 °F 75% 30.07 in 10.0 mi NE 5.8 mph - N/A   Overcast
1:13 AM 35.6 °F 31.7 °F 30.2 °F 81% 30.08 in 10.0 mi NE 4.6 mph - N/A   Overcast
1:33 AM 35.6 °F 29.9 °F 30.2 °F 81% 30.07 in 10.0 mi NE 6.9 mph - N/A   Overcast
1:54 AM 35.6 °F 30.7 °F 30.2 °F 81% 30.07 in 10.0 mi NNE 5.8 mph - N/A   Overcast
2:13 AM 35.6 °F 31.7 °F 30.2 °F 81% 30.07 in 10.0 mi NE 4.6 mph - N/A   Overcast
2:33 AM 35.6 °F 31.7 °F 30.2 °F 81% 30.07 in 10.0 mi NE 4.6 mph - N/A   Overcast
2:54 AM 35.6 °F 30.7 °F 30.2 °F 81% 30.07 in 10.0 mi ENE 5.8 mph - N/A   Overcast
3:13 AM 35.6 °F 30.7 °F 30.2 °F 81% 30.07 in 10.0 mi ENE 5.8 mph - N/A   Overcast
3:33 AM 33.8 °F 28.6 °F 30.2 °F 87% 30.06 in 10.0 mi East 5.8 mph - N/A   Mostly Cloudy
3:53 AM 33.8 °F 30.8 °F 28.4 °F 81% 30.06 in 10.0 mi ENE 3.5 mph - N/A   Mostly Cloudy
4:13 AM 33.8 °F - 28.4 °F 81% 30.06 in 10.0 mi Calm Calm - N/A   Overcast
4:33 AM 33.8 °F - 30.2 °F 87% 30.06 in 10.0 mi Calm Calm - N/A   Overcast
4:53 AM 33.8 °F - 28.4 °F 81% 30.06 in 10.0 mi Calm Calm - N/A   Overcast
5:13 AM 32.0 °F - 28.4 °F 87% 30.05 in 10.0 mi Calm Calm - N/A   Mostly Cloudy
5:33 AM 32.0 °F - 28.4 °F 87% 30.05 in 10.0 mi Calm Calm - N/A   Mostly Cloudy
5:53 AM 32.0 °F - 28.4 °F 87% 30.05 in 10.0 mi Calm Calm - N/A   Mostly Cloudy
6:13 AM 30.2 °F - 28.4 °F 93% 30.05 in 10.0 mi Calm Calm - N/A   Scattered Clouds
6:33 AM 32.0 °F - 28.4 °F 87% 30.05 in 10.0 mi Calm Calm - N/A   Mostly Cloudy
6:53 AM 32.0 °F - 28.4 °F 87% 30.05 in 10.0 mi Calm Calm - N/A   Overcast
7:13 AM 32.0 °F - 28.4 °F 87% 30.04 in 10.0 mi Calm Calm - N/A   Mostly Cloudy
7:33 AM 30.2 °F - 28.4 °F 93% 30.05 in 10.0 mi Calm Calm - N/A   Scattered Clouds
7:53 AM 30.2 °F - 28.4 °F 93% 30.05 in 10.0 mi Calm Calm - N/A   Overcast
8:13 AM 32.0 °F - 30.2 °F 93% 30.04 in 10.0 mi Calm Calm - N/A   Overcast
8:34 AM 33.8 °F - 28.4 °F 81% 30.04 in 10.0 mi Calm Calm - N/A   Overcast
8:53 AM 33.8 °F - 30.2 °F 87% 30.03 in 10.0 mi Calm Calm - N/A   Overcast
9:13 AM 33.8 °F - 30.2 °F 87% 30.04 in 10.0 mi Calm Calm - N/A   Overcast
9:34 AM 35.6 °F - 30.2 °F 81% 30.03 in 10.0 mi Calm Calm - N/A   Overcast
9:53 AM 37.4 °F - 30.2 °F 75% 30.03 in 10.0 mi Calm Calm - N/A   Overcast
10:13 AM 39.2 °F - 28.4 °F 65% 30.03 in 10.0 mi Calm Calm - N/A   Mostly Cloudy
10:34 AM 39.2 °F - 24.8 °F 56% 30.03 in 10.0 mi Calm Calm - N/A   Scattered Clouds
10:53 AM 41.0 °F 39.0 °F 23.0 °F 49% 30.03 in 10.0 mi SW 3.5 mph - N/A   Mostly Cloudy
11:18 AM 42.8 °F 40.1 °F 26.6 °F 53% 30.03 in 10.0 mi SW 4.6 mph - N/A   Scattered Clouds
11:34 AM 44.6 °F 43.1 °F 26.6 °F 49% 30.03 in 10.0 mi SW 3.5 mph - N/A   Clear
11:53 AM 46.4 °F 43.5 °F 26.6 °F 46% 30.03 in 10.0 mi SSW 5.8 mph - N/A   Clear
12:13 PM 46.4 °F 45.2 °F 26.6 °F 46% 30.02 in 10.0 mi SSW 3.5 mph - N/A   Clear
12:33 PM 48.2 °F - 26.6 °F 43% 30.01 in 10.0 mi WSW 5.8 mph - N/A   Clear
12:54 PM 50.0 °F - 24.8 °F 37% 30.00 in 10.0 mi WSW 4.6 mph - N/A   Clear
1:33 PM 51.8 °F - 23.0 °F 33% 29.98 in 10.0 mi WSW 3.5 mph - N/A   Scattered Clouds
2:13 PM 51.8 °F - 26.6 °F 38% 29.98 in 10.0 mi West 4.6 mph - N/A   Clear
2:54 PM 53.6 °F - 28.4 °F 38% 29.96 in 10.0 mi SW 4.6 mph - N/A   Clear
3:13 PM 51.8 °F - 28.4 °F 41% 29.96 in 10.0 mi West 4.6 mph - N/A   Scattered Clouds
3:33 PM 51.8 °F - 28.4 °F 41% 29.95 in 10.0 mi WSW 6.9 mph - N/A   Scattered Clouds
3:54 PM 51.8 °F - 28.4 °F 41% 29.95 in 10.0 mi WSW 6.9 mph - N/A   Scattered Clouds
4:13 PM 51.8 °F - 28.4 °F 41% 29.95 in 10.0 mi SW 6.9 mph - N/A   Scattered Clouds
4:33 PM 51.8 °F - 30.2 °F 44% 29.95 in 10.0 mi West 5.8 mph - N/A   Scattered Clouds
4:54 PM 51.8 °F - 30.2 °F 44% 29.95 in 10.0 mi WSW 4.6 mph - N/A   Scattered Clouds
5:33 PM 51.8 °F - 32.0 °F 47% 29.94 in 10.0 mi SSW 3.5 mph - N/A   Scattered Clouds
5:54 PM 50.0 °F - 32.0 °F 50% 29.94 in 10.0 mi Calm Calm - N/A   Scattered Clouds
6:33 PM 48.2 °F - 33.8 °F 58% 29.94 in 10.0 mi Calm Calm - N/A   Scattered Clouds
6:54 PM 48.2 °F - 33.8 °F 58% 29.94 in 10.0 mi Calm Calm - N/A   Mostly Cloudy
7:33 PM 46.4 °F - 33.8 °F 62% 29.94 in 10.0 mi Calm Calm - N/A   Scattered Clouds
7:53 PM 46.4 °F - 33.8 °F 62% 29.94 in 10.0 mi Calm Calm - N/A   Mostly Cloudy
8:13 PM 46.4 °F - 33.8 °F 62% 29.95 in 10.0 mi Calm Calm - N/A   Overcast
8:34 PM 46.4 °F - 33.8 °F 62% 29.95 in 10.0 mi Calm Calm - N/A   Overcast
8:53 PM 44.6 °F - 33.8 °F 66% 29.95 in 10.0 mi Calm Calm - N/A   Overcast
9:13 PM 46.4 °F - 33.8 °F 62% 29.95 in 10.0 mi Calm Calm - N/A   Overcast
9:34 PM 46.4 °F - 33.8 °F 62% 29.95 in 10.0 mi Calm Calm - N/A   Overcast
9:53 PM 44.6 °F - 35.6 °F 71% 29.95 in 10.0 mi Calm Calm - N/A   Overcast
10:13 PM 44.6 °F 42.2 °F 35.6 °F 71% 29.95 in 10.0 mi WNW 4.6 mph - N/A   Overcast
10:34 PM 44.6 °F 41.4 °F 35.6 °F 71% 29.94 in 10.0 mi WNW 5.8 mph - N/A   Overcast
10:53 PM 44.6 °F 41.4 °F 35.6 °F 71% 29.95 in 10.0 mi WNW 5.8 mph - N/A   Overcast
11:13 PM 46.4 °F 42.4 °F 35.6 °F 66% 29.95 in 10.0 mi WNW 8.1 mph - N/A   Overcast
11:34 PM 46.4 °F 42.9 °F 35.6 °F 66% 29.95 in 10.0 mi NW 6.9 mph - N/A   Overcast
11:53 PM 46.4 °F 41.9 °F 35.6 °F 66% 29.95 in 10.0 mi NW 9.2 mph - N/A   Mostly Cloudy